This demonstration page uses our WeatherBlox Daily Observations layout. Learn more.

Left ArrowRight Arrow

Hourly Observations for September 12, 2018

Temp ( °F °C ) Dew Point ( °F °C ) Humidity (%) Winds ( mph kmh ) Pressure ( in mb ) Visibility ( mi km ) Precip ( " mm )
12:15 am 00:15 Cloudy 64 18 64 18 100 100 N 7 11 30.18 1022 10 16 0.00 0.00
12:35 am 00:35 Cloudy 64 18 64 18 100 100 NNE 6 9 30.18 1022 10 16 0.00 0.00
12:55 am 00:55 Cloudy 64 18 64 18 100 100 NNE 6 9 30.18 1022 10 16 0.00 0.00
1:15 am 01:15 Cloudy 64 18 64 18 100 100 N 5 7 30.18 1022 10 16 0.01 0.25
1:35 am 01:35 Cloudy 64 18 64 18 100 100 Calm 30.18 1022 10 16 0.01 0.25
1:55 am 01:55 Cloudy 64 18 64 18 100 100 NE 5 7 30.18 1022 10 16 0.01 0.25
2:15 am 02:15 Cloudy 64 18 64 18 100 100 N 3 6 30.18 1022 10 16 0.00 0.00
2:35 am 02:35 Cloudy 64 18 64 18 100 100 NNE 5 7 30.21 1023 10 16 0.00 0.00
2:55 am 02:55 Cloudy 64 18 64 18 100 100 N 6 9 30.18 1022 10 16 0.00 0.00
3:15 am 03:15 Cloudy 64 18 64 18 100 100 NE 5 7 30.18 1022 10 16 0.00 0.00
3:35 am 03:35 Cloudy 64 18 64 18 100 100 N 3 6 30.18 1022 10 16 0.00 0.00
3:55 am 03:55 Cloudy 64 18 64 18 100 100 NNE 3 6 30.18 1022 10 16 0.00 0.00
4:15 am 04:15 Cloudy 64 18 64 18 100 100 NNE 3 6 30.18 1022 10 16 0.00 0.00
4:35 am 04:35 Cloudy 64 18 64 18 100 100 NNE 3 6 30.18 1022 10 16 0.00 0.00
4:55 am 04:55 Cloudy 64 18 64 18 100 100 NNE 6 9 30.18 1022 10 16 0.00 0.00
5:15 am 05:15 Cloudy 64 18 64 18 100 100 NE 7 11 30.18 1022 10 16 0.00 0.00
5:35 am 05:35 Cloudy 64 18 64 18 100 100 NNE 3 6 30.18 1022 10 16 0.00 0.00
5:55 am 05:55 Cloudy 64 18 64 18 100 100 NNE 5 7 30.18 1022 10 16 0.00 0.00
6:15 am 06:15 Cloudy 64 18 64 18 100 100 NNE 6 9 30.21 1023 10 16 0.00 0.00
6:35 am 06:35 Cloudy 64 18 64 18 100 100 NE 3 6 30.21 1023 10 16 0.00 0.00
6:55 am 06:55 Cloudy 64 18 64 18 100 100 Calm 30.21 1023 10 16 0.00 0.00
7:15 am 07:15 Cloudy with Nearby Thunderstorms 64 18 64 18 100 100 N 5 7 30.21 1023 10 16 0.00 0.00
7:35 am 07:35 Cloudy 64 18 64 18 100 100 N 5 7 30.24 1024 10 16 0.00 0.00
7:50 am 07:50 Cloudy 64 18 64 18 100 100 N 6 9 30.24 1024 10 16 0.00 0.00
8:15 am 08:15 Cloudy 64 18 64 18 100 100 NNE 5 7 30.24 1024 10 16 0.00 0.00
8:35 am 08:35 Cloudy with Mist and Fog 64 18 64 18 100 100 NNE 6 9 30.21 1023 5 8 0.00 0.00
8:55 am 08:55 Cloudy with Mist and Fog 64 18 64 18 100 100 N 5 7 30.21 1023 3 5 0.00 0.00
9:15 am 09:15 Cloudy with Light Rain 63 17 63 17 100 100 NNE 6 9 30.21 1023 2 3 0.00 0.00
9:35 am 09:35 Cloudy with Rain 63 17 63 17 100 100 NNE 3 6 30.21 1023 1 2 0.00 0.00
9:55 am 09:55 Cloudy with Mist and Fog 64 18 64 18 100 100 NNE 3 6 30.24 1024 2 3 0.00 0.00
10:15 am 10:15 Cloudy with Mist and Fog 64 18 64 18 100 100 NNE 6 9 30.24 1024 3 4 0.00 0.00
10:35 am 10:35 Cloudy with Mist and Fog 64 18 64 18 100 100 N 5 7 30.24 1024 4 6 0.00 0.00
10:55 am 10:55 Cloudy with Mist and Fog 64 18 64 18 100 100 N 6 9 30.24 1024 4 6 0.00 0.00
11:15 am 11:15 Cloudy with Mist and Fog 64 18 64 18 100 100 N 5 7 30.24 1024 4 6 0.00 0.00
11:35 am 11:35 Cloudy with Mist and Fog 64 18 64 18 100 100 NNE 5 7 30.24 1024 4 6 0.00 0.00
11:55 am 11:55 Cloudy with Mist and Fog 64 18 64 18 100 100 N 3 6 30.24 1024 4 6 0.00 0.00
12:15 pm 12:15 Cloudy with Mist and Fog 64 18 64 18 100 100 N 5 7 30.24 1024 5 8 0.00 0.00
12:35 pm 12:35 Cloudy 68 20 66 19 94 94 N 5 7 30.24 1024 7 11 0.00 0.00
12:55 pm 12:55 Cloudy 68 20 68 20 100 100 NE 3 6 30.24 1024 7 11 0.00 0.00
1:15 pm 13:15 Cloudy 68 20 68 20 100 100 NNE 7 11 30.24 1024 7 11 0.00 0.00
1:35 pm 13:35 Cloudy 70 21 68 20 94 94 NNE 6 9 30.24 1024 7 11 0.00 0.00
1:55 pm 13:55 Cloudy 70 21 70 21 100 100 NNE 6 9 30.21 1023 7 11 0.00 0.00
2:15 pm 14:15 Cloudy 72 22 70 21 94 94 NNE 6 9 30.21 1023 7 11 0.00 0.00
2:35 pm 14:35 Cloudy 73 23 70 21 89 89 NE 3 6 30.21 1023 10 16 0.00 0.00
2:55 pm 14:55 Cloudy with Light Rain 73 23 72 22 94 94 NE 6 9 30.21 1023 7 11 0.00 0.00
3:15 pm 15:15 Cloudy 73 23 72 22 94 94 NE 5 7 30.21 1023 7 11 0.00 0.00
3:35 pm 15:35 Cloudy 73 23 72 22 94 94 N 6 9 30.21 1023 7 11 0.00 0.00
3:55 pm 15:55 Cloudy 73 23 72 22 94 94 N 5 7 30.21 1023 7 11 0.00 0.00
4:15 pm 16:15 Mostly Cloudy 75 24 72 22 89 89 N 5 7 30.21 1023 7 11 0.00 0.00
4:35 pm 16:35 Mostly Cloudy 75 24 72 22 89 89 NW 7 11 30.18 1022 10 16 0.00 0.00
4:55 pm 16:55 Partly Cloudy 77 25 73 23 89 89 NW 7 11 30.18 1022 10 16 0.00 0.00
5:15 pm 17:15 Partly Cloudy 75 24 72 22 89 89 NNW 5 7 30.18 1022 10 16 0.01 0.25
5:35 pm 17:35 Partly Cloudy 77 25 73 23 89 89 NNW 5 7 30.18 1022 10 16 0.01 0.25
5:55 pm 17:55 Mostly Cloudy 77 25 73 23 89 89 NE 5 7 30.21 1023 10 16 0.01 0.25
6:15 pm 18:15 Cloudy 75 24 73 23 94 94 NNE 3 6 30.21 1023 10 16 0.00 0.00
6:35 pm 18:35 Partly Cloudy 75 24 73 23 94 94 Calm 30.18 1022 10 16 0.00 0.00
6:55 pm 18:55 Sunny 75 24 73 23 94 94 NNE 3 6 30.18 1022 10 16 0.00 0.00
7:15 pm 19:15 Mostly Cloudy 73 23 73 23 100 100 N 3 6 30.18 1022 10 16 0.00 0.00
7:35 pm 19:35 Partly Cloudy 73 23 72 22 94 94 NNE 5 7 30.18 1022 10 16 0.00 0.00
7:55 pm 19:55 Partly Cloudy 73 23 72 22 94 94 N 5 7 30.18 1022 10 16 0.00 0.00
8:15 pm 20:15 Mostly Cloudy 73 23 72 22 94 94 NE 3 6 30.21 1023 10 16 0.00 0.00
8:35 pm 20:35 Mostly Cloudy 72 22 72 22 100 100 NE 3 6 30.21 1023 10 16 0.00 0.00
8:55 pm 20:55 Partly Cloudy 72 22 72 22 100 100 Calm 30.21 1023 10 16 0.00 0.00
9:15 pm 21:15 Partly Cloudy 72 22 72 22 100 100 Calm 30.21 1023 10 16 0.00 0.00
9:35 pm 21:35 Mostly Cloudy 72 22 72 22 100 100 Calm 30.21 1023 10 16 0.00 0.00
9:55 pm 21:55 Cloudy 72 22 72 22 100 100 NE 5 7 30.21 1023 10 16 0.00 0.00
10:15 pm 22:15 Cloudy 70 21 70 21 100 100 NNE 6 9 30.21 1023 10 16 0.00 0.00
10:35 pm 22:35 Cloudy 70 21 70 21 100 100 NNE 6 9 30.21 1023 7 11 0.00 0.00
10:55 pm 22:55 Mostly Cloudy 70 21 70 21 100 100 NNE 3 6 30.21 1023 7 11 0.00 0.00
11:15 pm 23:15 Cloudy with Mist and Fog 70 21 70 21 100 100 NNE 5 7 30.21 1023 5 8 0.00 0.00
11:35 pm 23:35 Cloudy with Mist and Fog 70 21 70 21 100 100 NNE 5 7 30.21 1023 5 8 0.00 0.00
11:55 pm 23:55 Cloudy with Mist and Fog 70 21 70 21 100 100 NNE 5 7 30.21 1023 5 8 0.00 0.00

Powered by AerisWeather